Change the Weather History Date:

Saturday, November 17, 2012

  Actual Average Record
Temperature  
Mean Temperature 46 °F 36 °F  
Max Temperature 61 °F 51 °F 66 °F (1999)
Min Temperature 30 °F 22 °F 9 °F (2000)
Degree Days  
Heating Degree Days 19 29  
Month to date heating degree days 404 435  
Since 1 July heating degree days 960 1117  
Cooling Degree Days 0 0  
Month to date cooling degree days 0 0  
Year to date cooling degree days 746 426  
Moisture  
Dew Point 25 °F    
Average Humidity 49    
Maximum Humidity 72    
Minimum Humidity 25    
Precipitation  
Precipitation T in 0.05 in 0.06 in (2003)
Month to date precipitation 0.46 0.76  
Year to date precipitation 6.58 12.18  
Sea Level Pressure  
Sea Level Pressure 30.11 in    
Wind  
Wind Speed 5 mph (ESE)    
Max Wind Speed 20 mph    
Max Gust Speed 29 mph    
Visibility 10 miles    
Events      
T = Trace of Precipitation, MM = Missing Value Source: NWS Daily Summary

Daily Weather History Graph

Daily Weather History Graph

Search for Another Location

Airport or City:

Trip Planner

Search our weather history database for the weather conditions in past years. The results will help you decide how hot, cold, wet, or windy it might be!

Date:

Astronomy

Nov. 17, 2012 Rise Set
Actual Time 6:56 AM MST 5:02 PM MST
Civil Twilight 6:28 AM MST 5:30 PM MST
Nautical Twilight 5:56 AM MST 6:02 PM MST
Astronomical Twilight 5:25 AM MST 6:33 PM MST
Moon 10:43 AM MST (11/17) 9:15 PM MST (11/17)
Length of Visible Light 11h 02m
Length of Day
10h 06m
Waxing Crescent, 21% of the Moon is Illuminated
Nov 17
Waxing Crescent
Nov 20
First Quarter
Nov 28
Full
Dec 6
Last Quarter
Dec 13
New

Hourly Weather History & Observations

Time (MST) Temp. Windchill Dew Point Humidity Pressure Visibility Wind Dir Wind Speed Gust Speed Precip Events Conditions
12:53 AM 33.1 °F - 21.9 °F 64% 30.12 in 10.0 mi Calm Calm - N/A   Overcast
1:53 AM 33.1 °F 30.0 °F 23.0 °F 66% 30.12 in 10.0 mi ENE 3.5 mph - N/A   Mostly Cloudy
2:53 AM 33.1 °F 28.7 °F 21.9 °F 64% 30.11 in 10.0 mi ENE 4.6 mph - N/A   Clear
3:53 AM 36.0 °F 32.1 °F 23.0 °F 59% 30.11 in 10.0 mi ENE 4.6 mph - N/A   Overcast
4:53 AM 36.0 °F 29.6 °F 24.1 °F 62% 30.13 in 10.0 mi ENE 8.1 mph - N/A   Mostly Cloudy
5:53 AM 33.1 °F 26.9 °F 23.0 °F 66% 30.17 in 10.0 mi East 6.9 mph - N/A   Scattered Clouds
6:53 AM 30.9 °F - 23.0 °F 72% 30.20 in 10.0 mi Calm Calm - N/A   Mostly Cloudy
7:53 AM 33.1 °F 28.7 °F 24.1 °F 70% 30.22 in 10.0 mi ENE 4.6 mph - N/A   Scattered Clouds
8:53 AM 46.9 °F - 26.1 °F 44% 30.19 in 10.0 mi Calm Calm - N/A   Mostly Cloudy
9:53 AM 52.0 °F - 21.9 °F 31% 30.17 in 10.0 mi Calm Calm - N/A   Clear
10:53 AM 57.0 °F - 23.0 °F 27% 30.15 in 10.0 mi South 5.8 mph - N/A   Clear
11:53 AM 60.1 °F - 25.0 °F 26% 30.11 in 10.0 mi South 6.9 mph - N/A   Clear
12:53 PM 61.0 °F - 26.1 °F 26% 30.08 in 10.0 mi South 12.7 mph 19.6 mph N/A   Clear
1:53 PM 60.1 °F - 26.1 °F 27% 30.06 in 10.0 mi SSW 13.8 mph 18.4 mph N/A   Clear
2:53 PM 60.1 °F - 24.1 °F 25% 30.05 in 10.0 mi SSW 15.0 mph 19.6 mph N/A   Clear
3:53 PM 57.9 °F - 25.0 °F 28% 30.04 in 10.0 mi SW 4.6 mph - N/A   Clear
4:53 PM 51.1 °F - 26.1 °F 38% 30.06 in 10.0 mi SSW 5.8 mph - N/A   Clear
5:53 PM 43.0 °F - 26.1 °F 51% 30.11 in 10.0 mi Calm Calm - N/A   Partly Cloudy
6:53 PM 39.9 °F 35.1 °F 26.1 °F 58% 30.12 in 10.0 mi NE 6.9 mph - N/A   Mostly Cloudy
7:53 PM 39.0 °F 34.0 °F 26.1 °F 60% 30.13 in 10.0 mi East 6.9 mph - N/A   Mostly Cloudy
8:53 PM 39.0 °F - 26.1 °F 60% 30.08 in 10.0 mi Calm Calm - N/A   Mostly Cloudy
9:53 PM 37.0 °F 31.6 °F 25.0 °F 62% 30.06 in 10.0 mi ENE 6.9 mph - N/A   Mostly Cloudy
10:53 PM 37.9 °F 35.5 °F 26.1 °F 62% 30.04 in 10.0 mi SE 3.5 mph - N/A   Overcast
11:53 PM 37.0 °F - 28.9 °F 73% 30.05 in 10.0 mi Calm Calm - 0.00 in   Overcast